Content
SEND FEEDBACK

Daily
Averages
Monthly
Summary
Hungary

FELSOHALOM, HUNGARY


Home > Europe > Hungary
Elevation: 456 feet     Latitude: 47 25N     Longitude: 019 10E

WEATHER
 
SELECT A DAY
Number of Records: 96,559;   Date Range: 7/2/96 - 9/29/14
 
SHARE

PRINT THIS DATA

[ ← Previous Day ]
WEATHER ALMANAC - JANUARY 23, 2013
[ Next Day → ]
[ °C ]   °F
Weather ElementAverageHighLow
Temperature30.3 °F33.8 °F (1:00 pm)26.6 °F (4:00 am)
Dewpoint29 °F32 °F (4:30 pm)23 °F (8:30 am)
Humidity95.3 %100 % (12:30 am)80 % (8:30 am)
Barometer29.76 in29.83 in (6:30 pm)29.65 in (12:30 am)
Wind Speed6.3 mph11.5 mph (2:30 am)
Weather ElementAverage
Visibility2.2 mi
Wind DirectionSSE (171.1 °)

Weather ElementTotal
Precipitation---
Heating Degree Days34.8 (Base 65)
Averaged from 47 records on January 23, 2013
WEATHER CONDITIONS BREAKOUT
WIND DIRECTION BREAKOUT
WEATHER BY HOUR - JANUARY 23, 2013
[ °C ]   °F
Local TimeTemperatureDewpointHumidityBarometerVisibilityWind DirectionWind SpeedGust SpeedPrecipitationEventsConditions
12:30 AM28.4 °F28.4 °F100 %29.65 in1.1 miWest (280°)8.1 mphSnowSnow
1:00 AM28.4 °F28.4 °F100 %29.65 in1.1 miWest (280°)6.9 mphSnowSnow
1:30 AM28.4 °F28.4 °F100 %29.65 in1.1 miWest (280°)9.2 mphSnowSnow
2:00 AM28.4 °F28.4 °F100 %29.65 in3.1 miWest (270°)10.4 mphSnowLight Snow
2:30 AM28.4 °F26.6 °F93 %29.68 in3.1 miWest (280°)11.5 mphSnowLight Snow
3:00 AM28.4 °F26.6 °F93 %29.68 in2.2 miWSW (250°)9.2 mphSnowLight Snow
3:30 AM28.4 °F28.4 °F100 %29.68 in1.1 miWSW (250°)11.5 mphSnowSnow
4:00 AM26.6 °F26.6 °F100 %29.68 in1.1 miWest (260°)10.4 mphSnowSnow
4:30 AM28.4 °F28.4 °F100 %29.68 in1.0 miWest (260°)6.9 mphSnowSnow
5:00 AM28.4 °F26.6 °F93 %29.68 in0.9 miWest (260°)11.5 mphSnowSnow
5:30 AM26.6 °F26.6 °F100 %29.71 in1.2 miWNW (300°)9.2 mphSnowLight Snow
6:00 AM26.6 °F24.8 °F93 %29.71 in1.0 miNW (310°)6.9 mphSnowLight Snow
6:30 AM26.6 °F24.8 °F93 %29.71 in1.0 miNW (310°)4.6 mphSnowSnow
7:00 AM26.6 °F26.6 °F100 %29.74 in1.1 miWNW (300°)5.8 mphSnowLight Snow
7:30 AM26.6 °F26.6 °F100 %29.74 inVariable1.2 mphSnowLight Snow
8:00 AM26.6 °F26.6 °F100 %29.74 inWNW (290°)8.1 mphSnowLight Snow
8:30 AM28.4 °F23.0 °F80 %29.74 in2.8 miWNW (290°)5.8 mphMostly Cloudy
9:00 AM28.4 °F23.0 °F80 %29.77 inWest (270°)5.8 mphSnowLight Snow
9:30 AM28.4 °F24.8 °F86 %29.77 inVariable1.2 mphSnowLight Snow
10:00 AM28.4 °F23.0 °F80 %29.77 in2.5 miVariable1.2 mphSnowLight Snow
10:30 AM30.2 °F26.6 °F86 %29.77 inSW (230°)6.9 mphSnowLight Snow
11:00 AM30.2 °F28.4 °F93 %29.77 inWSW (240°)8.1 mphScattered Clouds
11:30 AM30.2 °F30.2 °F100 %29.77 in3.1 miSW (230°)9.2 mphMostly Cloudy
12:00 PM30.2 °F30.2 °F100 %29.77 in3.1 miSW (230°)11.5 mphMist
12:30 PM32.0 °F30.2 °F93 %29.77 in3.1 miWSW (240°)11.5 mphMist
1:00 PM33.8 °F30.2 °F87 %29.77 in3.7 miWSW (240°)10.4 mph
1:30 PM33.8 °F30.2 °F87 %29.80 in3.7 miWSW (240°)11.5 mph
2:00 PM33.8 °F30.2 °F87 %29.80 in3.7 miWSW (250°)9.2 mph
2:30 PM33.8 °F30.2 °F87 %29.80 in3.7 miWSW (250°)8.1 mph
3:00 PM33.8 °F30.2 °F87 %29.80 in3.7 miWSW (250°)5.8 mphOvercast
3:30 PM33.8 °F30.2 °F87 %29.80 in3.7 miSW (230°)5.8 mphMostly Cloudy
4:00 PM32.0 °F30.2 °F93 %29.80 in3.7 miSSW (210°)5.8 mphMostly Cloudy
4:30 PM32.0 °F32.0 °F100 %29.80 in3.1 miSSW (210°)4.6 mphOvercast
5:00 PM32.0 °F32.0 °F100 %29.80 in2.8 miVariable2.3 mphOvercast
5:30 PM32.0 °F32.0 °F100 %29.80 in2.5 miVariable2.3 mphOvercast
6:00 PM32.0 °F32.0 °F100 %29.80 in2.5 miVariable3.5 mphOvercast
6:30 PM32.0 °F32.0 °F100 %29.83 in2.5 miSouth (180°)4.6 mphOvercast
7:00 PM32.0 °F32.0 °F100 %29.83 in2.5 miVariable3.5 mphOvercast
7:30 PM32.0 °F32.0 °F100 %29.83 in2.5 miVariable2.3 mphOvercast
8:00 PM32.0 °F32.0 °F100 %29.83 in1.9 miVariable2.3 mphLight Drizzle
8:30 PM32.0 °F32.0 °F100 %29.83 in1.6 miVariable2.3 mphLight Drizzle
9:00 PM32.0 °F32.0 °F100 %29.83 in1.1 miVariable2.3 mphOvercast
9:30 PM32.0 °F32.0 °F100 %29.83 in1.0 miENE (70°)4.6 mphOvercast
10:00 PM32.0 °F32.0 °F100 %29.83 in1.1 miVariable3.5 mphOvercast
10:30 PM32.0 °F32.0 °F100 %29.83 in1.1 miVariable2.3 mphOvercast
11:00 PM32.0 °F32.0 °F100 %29.83 in1.1 miVariable2.3 mphOvercast
11:30 PM32.0 °F32.0 °F100 %29.83 in1.1 miVariable2.3 mphOvercast
Hourly data recorded from LHBP, located miles away from Felsohalom, Hungary







STORIES FROM OUR PARTNERS